Location: Augustenthal
(51.7167°N, 10.2833°E)
Time: 04:50:55
(UTC+00:00)

USA 215 - Pass Details

Date: 18 May 2021
Orbit: 1101 x 1107 km, 123.0° (Epoch: 10 June)

Event Time Altitude Azimuth Distance (km) Brightness Sun altitude
Rises 23:19:59 0° 111° (ESE) 3,913 6.0 -18.5°
Reaches altitude 10° 23:22:27 10° 110° (ESE) 2,957 5.3 -18.5°
Maximum altitude 23:29:00 82° 24° (NNE) 1,119 3.3 -18.5°
Drops below altitude 10° 23:35:33 10° 299° (WNW) 2,967 5.8 -18.4°
Sets 23:38:02 0° 298° (WNW) 3,927 6.5 -18.3°
